Regional Weather Roundup
Issued by NWS Northern Indiana

Home | Current Version | Previous Version | Graphics & Text | Print | Product List | Glossary On
Versions: 1 2 3 4 5 6 7 8 9 10 11 12 13 14 15 16 17 18 19 20 21 22 23 24 25 26 27 28 29 30 31 32 33 34 35 36 37 38 39 40 41 42 43 44 45 46 47 48 49 50
000
ASUS43 KIWX 282110
RWRIWX

KIWX WEATHER ROUNDUP
NATIONAL WEATHER SERVICE NORTHERN INDIANA
500 PM EDT MON JUL 28 2014

NOTE: "FAIR" INDICATES FEW OR NO CLOUDS BELOW 12,000 FEET WITH NO
SIGNIFICANT WEATHER AND/OR OBSTRUCTIONS TO VISIBILITY.

* THESE STATIONS ARE NOT UNDER NWS QUALITY CONTROL. THEY ALSO MAY NOT
  REPORT WEATHER SUCH AS PRECIPITATION OR FOG.

INZ001>027-282200-
NORTHERN INDIANA

CITY           SKY/WX    TMP DP  RH WIND       PRES   REMARKS
GARY*          MOSUNNY   66  48  52 N21G32    30.11R
VALPARAISO     SUNNY     64  47  53 N16G23    30.08S
MICHIGAN CITY* SUNNY     61  48  63 NW9G23    30.08S
LAPORTE*       SUNNY     62  50  65 NW17G23   30.08S
KNOX*          MOSUNNY   64  49  58 NW14G21   30.06F
SOUTH BEND     PTSUNNY   62  46  55 NW15G25   30.05S
ELKHART*       PTSUNNY   63  46  55 NW12G17   30.04
GOSHEN         MOSUNNY   64  51  62 NW15G22   30.03S
MONTICELLO*    SUNNY     67  52  58 NW14G20   30.06R
LOGANSPORT*    PTSUNNY   64  50  59 NW12G17   30.06S
ROCHESTER*     MOSUNNY   68  50  52 NW13G21   30.05S
WARSAW*        CLOUDY    64  50  59 NW13G22   30.03F
ANGOLA*        CLOUDY    70  61  73 NW10      29.98S
FORT WAYNE     MOSUNNY   69  55  60 W17G23    30.00R
HUNTINGTON*    MOSUNNY   65  54  68 NW13G18   30.02R
PERU/GRISSOM   MOSUNNY   66  54  66 NW14      30.04S
MARION*        PTSUNNY   65  53  64 N12G22    30.04R

$$
INZ028>050-282200-
CENTRAL INDIANA

CITY           SKY/WX    TMP DP  RH WIND       PRES   REMARKS
LAFAYETTE      MOSUNNY   70  50  49 N14G24    30.06S
KOKOMO*        PTSUNNY   66  54  63 NW14      30.05S
MUNCIE*        MOSUNNY   69  56  62 NW18G24   30.01R
INDIANAPOLIS   MOSUNNY   70  54  56 NW16G26   30.03R

$$
MIZ043>046-050>051-056>058-064>065-071>073-077>080-282200-
SOUTHWEST LOWER MICHIGAN

CITY           SKY/WX    TMP DP  RH WIND       PRES   REMARKS
BATTLE CREEK   CLOUDY    68  52  56 W13       29.99S
BENTON HARBOR  MOSUNNY   59  49  69 N8        30.05F
COLDWATER*     SUNNY     70  52  53 N13G22    29.98S
HILLSDALE*     CLOUDY    68  53  59 N10       29.97S
HOLLAND        SUNNY     62  49  62 NW15      30.04R
GRAND RAPIDS   PTSUNNY   69  50  50 NW13      30.00R
KALAMAZOO      PTSUNNY   67  52  58 W14       30.00S
STURGIS*         N/A     64  54  68 W15       30.00R
THREE RIVERS*  FAIR      65  53  64 W14       30.01S

$$
OHZ001>008-015>018-024>025-282200-
NORTHWEST OHIO

CITY           SKY/WX    TMP DP  RH WIND       PRES   REMARKS
WAUSEON*       PTSUNNY   72  55  56 NW12      29.95S
DEFIANCE       PTSUNNY   74  52  46 NW16      29.95S
FINDLAY        PTSUNNY   73  52  47 NW10      29.94R
TOLEDO EXPRESS CLOUDY    72  51  47 N13       29.94R
TOLEDO METCALF CLOUDY    72  51  47 N8        29.94R
LIMA           PTSUNNY   71  55  56 N10G23    29.95S

$$
&&


USA.gov is the U.S. government's official web portal to all federal, state and local government web resources and services.